マクノート彗星

C/2006 L2 ( McNaught )

English version
Home page
Total 6,336 html files since Dec. 4, 1995
Updated on October 3, 2007

---------------------------------------------------------------------

・ プロフィール

発見日 2006年6月14日
発見光度 13.7等
発見者 R. H. McNaught (Siding Spring Survey)

・ 写真集

・ 軌道要素

The following orbital elements are taken from MPC 58779:

Epoch 2006 Nov. 1.0 TT = JDT 2454040.5
T 2006 Nov. 20.1983 TT                                  MPC
q   1.993963             (2000.0)            P               Q
z  -0.000481       Peri.   48.0341      -0.4641025      +0.2703448
 +/-0.000003       Node   239.2460      -0.7508463      +0.3851492
e   1.000959       Incl.  101.0223      +0.4699348      +0.8823683
From 287 observations 2006 June 14-2007 Jan. 25, mean residual 0".6.

・ 星図

・ 光度変化

        m1 = 4.0 + 5 logΔ + 20.0 log r

---------------------------------------------------------------------

軌道要素はMPCのEphemerides and Orbital Elementsに掲載されたものです。
星図は StellaNavigator Ver.2.0 for Windows (アストロアーツ 編著 / アスキー出版局刊) で作成したものです。
光度グラフはComet for Windowsで作成したものです。

---------------------------------------------------------------------

Copyright(C) 1995-2008 Seiichi Yoshida (comet@aerith.net). All rights reserved.